Starlink 11233

operational
NORAD ID: 61061 Int'l Des: 2024-164 Owner: SPXS Country: US Constellation: starlink
LEOCIRCULAR

About Starlink 11233

Description loading...

Live Position

Loading 3D Globe...

Upcoming Passes

Altitude History

Altitude vs Time

uPlot chart will show altitude changes over time

Two-Line Element Set

1 61061U 24164M 26101.83933598 .00000004 00000-0 48885-5 0 9991
2 61061 53.1587 147.9792 0000997 87.2157 272.8975 15.69709541 90623
Epoch: Apr 11, 2026 • Age: 10 hours

Current Status

Altitude 360.3 km
Velocity 7.70 km/s
Sub-Earth Point 24.19°N, 16.77°E
Launch Date Sep 13, 2024
Age 1.5 years
Type internet

Technical Details

Classification Payload
Mass 960.00 kg
Dry Mass 910.00 kg
Total Mass 960.00 kg
Length 0.30 m
Diameter 4.10 m
Span 29.00 m
Shape Box + pan
Manufacturer SPXS
Bus Type Starlink V2MD
Phase Status In Orbit
Owner/State SPXS/US

Large Constellations

Loading constellations...